Presure
309 184 174 133 290 194 148 186 182 205 182 143 177 110 97 137 141 137 133 98 129 113 119 164 101 97 101 154 168 99 121 141 169 166 178 172 175 173 170 171 182 161 178
373 320 115 128 119 125 214 247 110 161 235 100 201 158 141 141 139 155 128 129 137 97 101 115 99 177 204 158 162 190 138 173 147 177 165 169 185 185 188 183 167 204 165
126 127 190 316 268 164 226 248 152 151 117 108 191 125 134 144 145 122 96 126 197 184 155 139 107 145 148 174 198 193 157 200 217 184 182 179 162 171 182 187 151 206 186
127 128 128 132 139 139 176 127 136 187 220 162 209 136 125 149 203 120 123 142 174 184 139 168 186 151 152 192 196 187 172 175 170 187 131 176 192 178 173 198 176 169 183
143 185 170 202 142 146 163 167 134 130 146 134 186 219 136 192 144 154 163 180 171 189 161 191 174 191 142 159 154 187 157 193 184 189 192 164 180 162 192 207 196 182 184
149 259 211 164 162 149 153 153 151 153 151 204 203 212 207 147 151 157 201 179 180 178 208 188 173 136 183 154 144 199 201 199 187 171 163 176 198 180 162 184 176 195 182
173 179 213 198 207 157 144 200 196 157 164 180 214 210 163 162 162 167 172 181 172 163 177 186 157 187 170 185 203 195 148 163 190 187 172 172 213 196 168 195 185 190 169
179 173 186 185 208 223 193 187 196 196 190 164 185 203 202 199 174 174 169 173 145 176 163 156 183 161 183 149 197 197 178 164 185 198 192 188 183 174 184 184 176 174 161
153 161 150 182 140 156 205 175 188 202 175 219 182 176 207 195 186 189 196 198 190 183 172 142 158 186 163 197 208 186 219 184 191 188 166 180 193 202 181 174 195 177 180
173 201 221 156 186 224 208 169 167 168 185 194 193 164 158 164 167 180 185 190 173 150 183 178 222 199 205 193 195 223 200 157 213 163 180 195 178 197 196 173 171 201 157
205 161 183 243 195 213 181 203 191 195 194 186 193 204 186 179 197 178 203 216 176 166 186 185 174 153 194 190 187 193 202 182 186 199 175 182 181 182 190 180 178 186 181
189 192 203 227 212 205 195 169 173 169 167 176 189 190 213 189 173 172 179 188 166 198 204 189 186 197 175 194 193 177 182 181 175 195 190 187 179 182 176 181 185 194 183
208 212 223 229 166 183 196 199 197 174 169 178 178 166 211 204 184 203 162 167 167 183 186 172 209 202 195 189 172 200 182 188 199 200 187 173 173 189 168 194 188 177 177
238 208 203 201 213 234 193 177 225 209 189 213 169 183 198 173 204 195 192 206 195 195 162 208 194 188 178 181 185 186 184 184 193 193 171 187 190 181 191 194 191 199 191
182 179 202 175 219 206 212 178 210 199 216 188 190 208 205 194 203 180 209 207 196 204 199 199 205 186 186 187 184 197 191 195 182 192 203 190 187 193 196 194 205 200 194
193 198 208 239 214 214 224 253 212 221 215 198 215 214 180 203 212 189 194 197 199 205 215 210 203 218 204 209 203 205 202 205 208 209 200 199 198 186 199 200 206 212 215
157 221 215 228 240 214 216 224 186 221 194 194 181 175 176 209 213 203 219 229 224 224 240 216 223 207 213 219 195 217 210 211 214 213 211 212 223 245 275 226 223 263 236
255 234 262 150 271 238 198 173 164 243 216 224 242 172 232 170 307 294 258 197 288 358 272 277 308 278 249 248 251 279 264 274 269 248 246 259 227 240 237 246 253 264 252
155 150 145 188 150 141 178 142 127 183 156 212 219 222 250 253 298 504 471 258 249 239 258 243 265 446 402 396 302 299 238 253 255 258 269 249 267 245 237 253 269 264 244
160 193 188 151 183 180 164 153 186 139 249 288 267 290 305 501 479 469 460 466 454 448 452 526 502 439 400 400 408 355 332 324 329 323 324 251 215 272 214 294 287 283 216
150 147 149 182 187 225 210 163 248 233 270 273 289 317 485 468 455 501 544 524 509 474 459 438 498 434 392 363 350 356 317 327 363 250 233 226 234 299 303 300 298 292 319
152 161 151 203 213 188 259 252 233 264 276 279 315 471 457 448 501 566 541 520 500 470 496 439 510 441 370 361 333 373 324 302 304 308 303 301 303 294 298 299 302 313 300
201 205 216 153 181 191 182 173 261 252 273 285 332 448 441 472 525 525 502 490 481 468 440 443 459 407 379 389 354 326 307 335 319 316 333 309 309 313 312 306 305 294 289
137 183 158 153 247 251 238 255 267 259 277 303 444 429 431 462 490 491 489 472 463 444 421 462 399 356 347 357 326 326 326 294 308 292 298 293 286 291 308 306 287 302 284
145 238 165 153 177 230 253 251 247 263 278 302 434 418 414 434 463 477 479 474 451 417 444 437 372 362 349 356 333 309 316 298 305 303 305 294 292 293 292 289 310 286 298
143 238 193 174 237 242 251 258 243 262 278 307 426 414 406 407 458 462 477 431 417 428 414 383 366 355 354 328 334 317 300 301 295 294 295 300 291 285 294 290 291 298 291
Wind_Speed
42 56 48 47 63 57 39 60 58 68 54 59 66 55 53 56 62 63 60 47 59 53 60 70 58 52 65 68 66 53 62 57 59 60 70 72 53 62 62 59 81 46 63
30 38 42 46 48 47 67 74 55 66 85 55 75 64 64 64 65 67 60 61 59 51 49 60 61 75 77 51 66 86 66 69 70 75 71 54 77 84 87 87 59 92 54
53 49 45 52 67 51 65 76 60 57 58 62 74 59 58 71 70 59 51 53 88 85 70 71 70 69 54 75 90 84 57 91 86 74 78 75 62 67 80 88 61 89 84
52 48 51 49 47 47 50 52 45 58 79 61 78 60 55 62 69 59 69 60 73 78 73 76 90 55 80 93 83 90 73 78 70 86 83 77 88 86 72 93 77 72 80
48 45 43 46 48 46 49 47 48 43 47 47 62 86 58 76 71 59 66 83 68 91 68 78 82 91 65 69 68 89 61 100 88 92 99 60 88 60 101 100 98 84 82
42 57 41 44 45 35 41 45 48 51 52 76 78 90 92 58 62 68 96 80 84 87 94 99 85 82 96 64 70 105 102 102 95 78 58 85 106 94 71 83 83 96 87
48 44 49 50 53 38 34 62 65 52 59 63 80 89 65 66 66 69 75 84 78 68 91 100 92 105 91 105 106 107 72 66 106 105 84 83 105 107 77 100 85 92 77
53 48 48 61 56 72 61 56 62 67 66 59 68 88 93 75 72 75 80 77 66 86 74 70 104 94 106 88 107 111 92 82 100 110 104 101 93 79 89 79 79 84 82
31 40 52 53 48 48 67 53 61 78 61 86 69 70 100 93 83 94 106 109 106 104 102 86 91 109 84 119 119 109 120 112 117 107 74 86 105 104 80 76 113 82 91
47 50 59 53 49 81 74 39 39 43 66 84 87 55 61 64 72 86 97 110 92 82 102 101 114 119 124 123 125 117 117 87 117 82 88 117 79 117 115 78 85 123 90
53 38 46 66 55 72 54 72 68 75 79 81 87 101 84 77 111 83 103 113 94 83 113 106 101 88 113 112 104 109 118 98 108 114 89 100 98 106 124 99 99 115 112
32 40 34 71 54 60 68 45 49 53 61 67 91 91 101 95 81 82 91 103 86 118 125 120 118 121 98 122 129 105 115 109 99 131 125 118 109 115 106 116 124 135 120
59 55 67 67 49 42 63 71 76 59 61 64 67 75 108 111 94 115 88 93 93 105 115 100 128 131 139 128 104 134 118 134 139 133 130 101 105 132 98 137 132 116 114
66 65 53 55 71 73 69 59 88 85 75 99 74 84 105 88 119 114 117 126 130 131 90 131 136 133 118 122 129 133 130 127 141 136 111 138 140 128 142 139 140 145 134
48 36 56 46 67 68 72 59 75 81 101 84 93 110 115 113 116 101 131 135 128 141 129 135 148 122 122 133 127 149 143 139 132 146 150 140 138 141 141 140 149 138 129
44 54 65 78 78 80 89 80 89 97 97 92 109 115 95 119 137 111 118 126 133 144 153 153 145 156 146 148 150 154 153 155 157 158 156 152 143 113 141 141 144 156 147
33 68 70 76 85 83 87 92 71 106 86 95 83 81 84 138 142 124 144 154 156 154 162 135 161 133 157 166 126 160 151 157 166 164 147 148 156 150 130 164 160 129 142
33 32 38 37 42 67 67 59 52 65 66 88 98 73 118 69 95 95 123 96 115 106 132 133 135 153 164 166 154 136 146 134 133 151 154 133 161 158 154 145 134 128 132
33 41 44 49 56 50 58 45 40 84 65 103 102 107 107 111 107 72 73 125 128 134 124 124 126 97 104 104 116 124 117 134 137 136 127 136 127 143 119 136 117 127 123
51 47 48 49 62 67 69 70 78 53 84 95 91 102 107 67 71 72 73 70 68 68 63 60 67 73 89 68 65 99 108 106 110 101 100 122 107 104 108 107 112 108 105
51 54 58 61 69 68 71 64 82 87 96 95 106 112 71 72 71 68 51 50 52 58 61 60 50 71 70 75 87 79 92 91 63 115 110 119 124 100 98 99 100 97 73
52 54 53 68 63 69 81 80 83 97 107 104 116 69 70 71 65 41 37 37 42 44 47 52 45 49 75 82 79 46 71 80 84 75 77 86 89 94 90 87 85 76 80
60 65 69 56 73 82 71 70 97 90 104 107 117 67 69 60 49 34 28 28 31 36 38 39 38 55 50 62 57 63 75 50 66 76 62 73 72 73 75 74 74 71 73
50 63 53 58 81 84 82 95 103 98 109 122 66 67 66 53 46 35 28 27 28 28 33 25 49 53 53 60 66 66 62 75 69 70 66 71 72 76 68 67 70 67 69
52 73 59 60 71 80 92 95 94 105 111 121 59 63 66 60 45 35 28 20 18 24 17 28 53 57 58 60 63 64 67 70 60 68 72 71 72 70 68 69 63 67 64
50 76 68 73 83 85 96 103 92 103 110 121 55 57 60 61 40 35 24 16 15 17 27 41 42 42 52 57 58 61 64 64 68 66 66 65 68 71 68 64 63 58 55
Wind_Direction
207 220 231 235 213 232 261 245 249 221 247 243 239 259 265 267 263 265 269 289 277 265 269 275 285 298 294 292 293 304 300 286 304 302 301 308 299 313 314 314 318 282 307
161 195 246 234 237 236 223 219 254 238 224 269 238 244 260 262 266 265 260 274 281 301 295 297 297 290 277 286 290 291 274 301 300 306 309 301 303 311 312 315 290 315 300
245 247 224 165 192 224 222 214 241 232 257 263 235 262 264 259 263 279 295 278 263 265 279 270 285 287 277 278 284 278 291 290 285 300 304 307 291 312 314 313 275 313 313
248 247 248 245 244 246 239 247 250 230 232 239 239 256 264 261 241 266 262 275 269 265 277 283 282 278 278 286 285 292 290 297 292 298 286 307 298 307 311 307 307 295 309
235 226 234 222 239 240 240 235 249 247 252 255 248 238 261 252 255 274 274 267 277 272 283 267 284 278 271 287 285 287 288 291 290 295 297 292 306 300 303 301 303 307 313
236 186 219 244 244 247 248 255 257 257 260 244 248 241 245 270 273 275 255 271 273 276 264 278 286 264 286 283 273 284 283 284 292 299 292 303 294 300 296 292 301 306 307
249 241 214 229 220 263 255 231 234 267 260 251 236 241 263 270 273 277 273 274 280 283 283 278 273 282 289 286 279 282 277 291 290 292 294 303 294 296 292 304 305 306 284
245 251 238 215 221 212 237 246 240 242 252 268 257 249 251 253 271 270 260 277 261 284 282 280 282 278 283 279 281 281 291 285 292 287 293 294 296 298 305 303 292 293 276
250 267 245 253 238 274 228 272 255 241 273 237 266 273 249 259 269 267 263 263 268 275 275 271 276 281 274 280 277 286 279 290 288 288 285 282 301 299 298 295 306 297 304
259 239 220 231 263 216 227 280 277 275 268 256 257 270 267 276 275 282 275 269 264 265 276 284 270 279 280 285 285 278 285 275 290 271 291 301 290 300 301 285 284 304 277
238 246 270 214 249 228 276 244 267 262 265 270 265 256 272 285 264 284 270 264 273 274 274 282 274 269 278 287 284 288 292 288 295 295 287 298 292 298 302 297 298 306 306
245 228 233 223 232 232 242 265 286 277 277 279 259 270 258 263 281 283 287 285 275 279 276 280 280 282 282 288 288 289 292 291 287 292 295 294 294 296 297 298 301 301 299
243 249 241 237 247 262 255 263 260 275 267 279 279 268 260 265 278 270 273 277 278 275 285 280 273 276 280 286 284 281 287 289 287 286 292 288 291 295 289 295 297 295 294
229 255 253 273 263 249 272 260 250 262 278 255 274 276 275 271 266 276 277 269 272 270 282 268 275 280 282 283 284 283 285 288 287 283 287 289 290 291 289 290 293 293 295
258 260 254 261 255 268 259 266 259 275 260 268 266 266 268 282 271 272 267 268 272 270 271 274 271 275 276 277 280 277 282 280 287 285 281 284 287 286 288 290 289 291 295
261 262 268 251 264 264 260 262 271 265 265 278 269 267 277 269 265 276 277 275 274 272 269 270 275 270 275 276 277 276 278 277 278 278 282 284 283 284 286 287 290 288 287
266 262 266 265 257 272 275 267 282 270 276 277 278 284 286 269 269 274 270 269 269 270 264 272 267 279 274 272 276 273 278 277 276 278 281 282 281 279 273 285 287 278 288
260 268 263 298 271 271 274 290 303 274 273 273 268 293 263 296 288 281 264 291 268 268 267 266 264 268 268 270 270 261 268 265 264 271 273 270 279 277 280 279 278 275 281
303 306 317 277 313 297 290 290 260 296 290 269 275 273 288 295 286 292 288 267 268 274 272 276 268 250 249 250 261 258 270 267 267 266 262 270 269 273 277 275 273 273 280
296 278 278 316 280 293 296 303 289 310 300 314 303 311 310 300 297 294 289 283 275 270 263 263 246 242 246 253 255 250 257 254 258 256 258 266 276 267 285 267 269 272 287
317 319 314 301 293 298 298 301 322 314 317 316 318 318 305 306 306 296 285 275 270 267 259 252 250 229 231 232 243 239 251 255 252 264 270 272 275 262 263 265 268 271 270
299 293 304 309 316 308 327 324 315 323 322 323 323 310 312 314 307 303 290 276 270 263 261 247 233 225 225 228 243 247 243 247 252 253 254 257 260 262 266 267 268 269 268
298 304 314 311 304 299 308 310 326 319 324 327 328 317 321 322 318 310 295 281 273 271 250 243 221 221 226 220 217 225 244 231 240 245 243 251 256 258 259 262 263 265 268
319 306 311 315 327 328 323 328 330 324 329 332 322 322 327 330 324 317 302 285 280 258 244 229 203 211 221 210 220 227 218 243 242 247 248 249 254 255 256 257 267 258 266
309 322 310 316 317 320 329 327 323 327 331 334 324 326 329 339 328 327 316 296 283 247 221 215 206 208 217 208 212 224 225 235 234 240 237 244 249 252 255 258 250 263 258
313 321 316 312 325 324 329 329 324 329 333 334 327 329 332 337 337 330 329 295 272 208 200 195 198 208 205 209 211 215 227 228 235 242 244 238 245 253 252 255 259 259 259